When you browse on this site, cookies collect data to enhance your experience and personalize the content and advertising you see.
Visit our Privacy Policy to learn more. By continuing to use the site, you agree to this use of cookies and data.
  • en Suisse
  • Liste des pays
  • À 7 jours
  • Température de l'eau
  • Carte météo
  • Widgets météo
  • user-avatar
    Se connecter

    Météo par heure à Psarcy

    Ce jour, 19 Août, Lundi

    Heure Température Précipitation Vent Pression Humidité
    00:00 +14°C° 0 mm 2 m/s 741 mmHg 95%
    01:00 +14°C° 0 mm 2 m/s 741 mmHg 95%
    02:00 +14°C° 0 mm 1 m/s 741 mmHg 95%
    03:00 +13°C° 0 mm 1 m/s 742 mmHg 94%
    04:00 +13°C° 0 mm 1 m/s 742 mmHg 94%
    05:00 +13°C° 0 mm 1 m/s 742 mmHg 94%
    06:00 +14°C° 0 mm 1 m/s 742 mmHg 90%
    07:00 +16°C° 0 mm 2 m/s 743 mmHg 87%
    08:00 +18°C° 0 mm 2 m/s 743 mmHg 81%
    09:00 +19°C° 0 mm 2 m/s 743 mmHg 76%
    10:00 +21°C° 0 mm 2 m/s 743 mmHg 71%
    11:00 +22°C° 0 mm 3 m/s 743 mmHg 66%
    12:00 +24°C° 0 mm 3 m/s 743 mmHg 65%
    13:00 +25°C° 0 mm 3 m/s 743 mmHg 65%
    14:00 +26°C° 0 mm 4 m/s 744 mmHg 64%
    15:00 +25°C° 0 mm 3 m/s 744 mmHg 68%
    16:00 +25°C° 0 mm 3 m/s 744 mmHg 71%
    17:00 +25°C° 0 mm 2 m/s 744 mmHg 75%
    18:00 +23°C° 0 mm 2 m/s 744 mmHg 80%
    19:00 +21°C° 0 mm 2 m/s 744 mmHg 85%
    20:00 +19°C° 0 mm 2 m/s 744 mmHg 90%
    21:00 +19°C° 0 mm 3 m/s 744 mmHg 89%
    22:00 +19°C° 0 mm 3 m/s 744 mmHg 88%
    23:00 +18°C° 0 mm 3 m/s 744 mmHg 88%

    Demain, 20 Août, Mardi

    Heure Température Précipitation Vent Pression Humidité
    00:00 +18°C° 0.1 mm 3 m/s 744 mmHg 89%
    01:00 +17°C° 0.1 mm 2 m/s 745 mmHg 91%
    02:00 +17°C° 0.1 mm 2 m/s 745 mmHg 92%
    03:00 +17°C° 0.5 mm 2 m/s 745 mmHg 93%
    04:00 +16°C° 0.5 mm 2 m/s 745 mmHg 94%
    05:00 +16°C° 0.5 mm 2 m/s 745 mmHg 95%
    06:00 +17°C° 0.5 mm 2 m/s 745 mmHg 94%
    07:00 +19°C° 0.5 mm 2 m/s 746 mmHg 92%
    08:00 +20°C° 0.5 mm 2 m/s 746 mmHg 90%
    09:00 +21°C° 0.2 mm 2 m/s 746 mmHg 87%
    10:00 +24°C° 0.2 mm 2 m/s 746 mmHg 84%
    11:00 +25°C° 0.2 mm 3 m/s 746 mmHg 80%
    12:00 +25°C° 0.7 mm 2 m/s 746 mmHg 81%
    13:00 +25°C° 0.7 mm 2 m/s 746 mmHg 82%
    14:00 +25°C° 0.7 mm 2 m/s 746 mmHg 83%
    15:00 +25°C° 0.4 mm 2 m/s 746 mmHg 85%
    16:00 +24°C° 0.4 mm 2 m/s 746 mmHg 88%
    17:00 +24°C° 0.4 mm 1 m/s 746 mmHg 90%
    18:00 +23°C° 0.1 mm 1 m/s 746 mmHg 90%
    19:00 +22°C° 0.1 mm 1 m/s 747 mmHg 91%
    20:00 +22°C° 0.1 mm 1 m/s 747 mmHg 91%
    21:00 +21°C° 0 mm 1 m/s 747 mmHg 92%
    22:00 +21°C° 0 mm 1 m/s 747 mmHg 92%
    23:00 +20°C° 0 mm 1 m/s 747 mmHg 93%

    Après-demain, 21 Août, Mercredi

    Heure Température Précipitation Vent Pression Humidité
    00:00 +20°C° 0 mm 1 m/s 747 mmHg 94%
    01:00 +20°C° 0 mm 1 m/s 747 mmHg 94%
    02:00 +20°C° 0 mm 1 m/s 747 mmHg 94%
    03:00 +19°C° 0 mm 1 m/s 747 mmHg 94%
    04:00 +18°C° 0 mm 2 m/s 747 mmHg 94%
    05:00 +18°C° 0 mm 2 m/s 747 mmHg 95%
    06:00 +19°C° 0 mm 2 m/s 747 mmHg 92%
    07:00 +20°C° 0 mm 2 m/s 747 mmHg 89%
    08:00 +21°C° 0 mm 2 m/s 747 mmHg 87%
    09:00 +22°C° 0 mm 3 m/s 747 mmHg 81%
    10:00 +25°C° 0 mm 3 m/s 747 mmHg 76%
    11:00 +26°C° 0 mm 3 m/s 747 mmHg 71%
    12:00 +27°C° 0 mm 3 m/s 747 mmHg 69%
    13:00 +27°C° 0 mm 3 m/s 747 mmHg 67%
    14:00 +28°C° 0 mm 4 m/s 747 mmHg 65%
    15:00 +28°C° 0 mm 3 m/s 746 mmHg 68%
    16:00 +27°C° 0 mm 3 m/s 746 mmHg 72%
    17:00 +27°C° 0 mm 2 m/s 746 mmHg 75%
    18:00 +25°C° 0 mm 2 m/s 746 mmHg 79%
    19:00 +24°C° 0 mm 2 m/s 746 mmHg 83%
    20:00 +21°C° 0 mm 2 m/s 746 mmHg 88%
    21:00 +20°C° 0 mm 2 m/s 745 mmHg 88%
    22:00 +20°C° 0 mm 2 m/s 745 mmHg 89%
    23:00 +19°C° 0 mm 2 m/s 745 mmHg 90%

    22 Août, Jeudi

    Heure Température Précipitation Vent Pression Humidité
    00:00 +19°C° 0.1 mm 2 m/s 745 mmHg 90%
    01:00 +19°C° 0.1 mm 2 m/s 745 mmHg 90%
    02:00 +19°C° 0.1 mm 2 m/s 745 mmHg 89%
    03:00 +18°C° 0.5 mm 2 m/s 745 mmHg 91%
    04:00 +19°C° 0.5 mm 1 m/s 745 mmHg 92%
    05:00 +18°C° 0.5 mm 1 m/s 745 mmHg 93%
    06:00 +19°C° 0.4 mm 1 m/s 745 mmHg 93%
    07:00 +19°C° 0.4 mm 1 m/s 745 mmHg 93%
    08:00 +20°C° 0.4 mm 1 m/s 745 mmHg 93%
    09:00 +20°C° 0.4 mm 1 m/s 746 mmHg 91%
    10:00 +21°C° 0.4 mm 1 m/s 746 mmHg 90%
    11:00 +21°C° 0.4 mm 2 m/s 746 mmHg 88%
    12:00 +20°C° 0.2 mm 2 m/s 746 mmHg 90%
    13:00 +19°C° 0.2 mm 3 m/s 746 mmHg 92%
    14:00 +18°C° 0.2 mm 4 m/s 746 mmHg 94%
    15:00 +17°C° 0 mm 4 m/s 746 mmHg 94%
    16:00 +17°C° 0 mm 4 m/s 746 mmHg 93%
    17:00 +17°C° 0 mm 4 m/s 746 mmHg 93%
    18:00 +15°C° 0 mm 4 m/s 747 mmHg 93%
    19:00 +15°C° 0 mm 4 m/s 747 mmHg 93%
    20:00 +15°C° 0 mm 4 m/s 747 mmHg 92%
    21:00 +14°C° 0 mm 3 m/s 747 mmHg 93%
    22:00 +14°C° 0 mm 3 m/s 748 mmHg 94%
    23:00 +13°C° 0 mm 3 m/s 748 mmHg 95%

    23 Août, Vendredi

    Heure Température Précipitation Vent Pression Humidité
    00:00 +13°C° 0 mm 3 m/s 748 mmHg 96%
    01:00 +13°C° 0 mm 3 m/s 748 mmHg 96%
    02:00 +12°C° 0 mm 3 m/s 748 mmHg 96%
    03:00 +12°C° 0 mm 3 m/s 748 mmHg 96%
    04:00 +12°C° 0 mm 3 m/s 748 mmHg 97%
    05:00 +12°C° 0 mm 3 m/s 748 mmHg 97%
    06:00 +13°C° 0 mm 3 m/s 748 mmHg 93%
    07:00 +14°C° 0 mm 3 m/s 748 mmHg 89%
    08:00 +17°C° 0 mm 3 m/s 749 mmHg 85%
    09:00 +18°C° 0 mm 3 m/s 749 mmHg 78%
    10:00 +20°C° 0 mm 3 m/s 749 mmHg 72%
    11:00 +21°C° 0 mm 3 m/s 749 mmHg 65%
    12:00 +21°C° 0.1 mm 3 m/s 749 mmHg 64%
    13:00 +22°C° 0.1 mm 3 m/s 749 mmHg 62%
    14:00 +22°C° 0.1 mm 3 m/s 749 mmHg 60%
    15:00 +22°C° 0 mm 3 m/s 749 mmHg 63%
    16:00 +21°C° 0 mm 2 m/s 749 mmHg 66%
    17:00 +21°C° 0 mm 2 m/s 749 mmHg 69%
    18:00 +19°C° 0 mm 2 m/s 749 mmHg 73%
    19:00 +17°C° 0 mm 2 m/s 749 mmHg 76%
    20:00 +15°C° 0 mm 2 m/s 749 mmHg 80%
    21:00 +14°C° 0 mm 2 m/s 750 mmHg 82%
    22:00 +14°C° 0 mm 2 m/s 750 mmHg 84%
    23:00 +13°C° 0 mm 2 m/s 750 mmHg 87%

    24 Août, Samedi

    Heure Température Précipitation Vent Pression Humidité
    00:00 +13°C° 0 mm 1 m/s 750 mmHg 88%
    01:00 +12°C° 0 mm 1 m/s 750 mmHg 89%
    02:00 +12°C° 0 mm 1 m/s 750 mmHg 89%
    03:00 +12°C° 0 mm 1 m/s 750 mmHg 90%
    04:00 +12°C° 0 mm 1 m/s 750 mmHg 90%
    05:00 +11°C° 0 mm 1 m/s 750 mmHg 91%
    06:00 +13°C° 0 mm 1 m/s 751 mmHg 85%
    07:00 +15°C° 0 mm 1 m/s 751 mmHg 79%
    08:00 +18°C° 0 mm 1 m/s 751 mmHg 73%
    09:00 +19°C° 0 mm 1 m/s 751 mmHg 69%
    10:00 +21°C° 0 mm 1 m/s 751 mmHg 64%
    11:00 +22°C° 0 mm 1 m/s 751 mmHg 60%
    12:00 +23°C° 0 mm 1 m/s 751 mmHg 58%
    13:00 +23°C° 0 mm 1 m/s 751 mmHg 56%
    14:00 +24°C° 0 mm 1 m/s 751 mmHg 54%
    15:00 +23°C° 0 mm 1 m/s 751 mmHg 59%
    16:00 +23°C° 0 mm 1 m/s 751 mmHg 63%
    17:00 +22°C° 0 mm 1 m/s 750 mmHg 68%
    18:00 +20°C° 0 mm 1 m/s 750 mmHg 74%
    19:00 +18°C° 0 mm 1 m/s 750 mmHg 80%
    20:00 +16°C° 0 mm 1 m/s 750 mmHg 85%
    21:00 +14°C° 0 mm 0 m/s 750 mmHg 86%
    22:00 +14°C° 0 mm 0 m/s 750 mmHg 87%
    23:00 +13°C° 0 mm 0 m/s 750 mmHg 88%
    Voir plus